DB0GIS-11 Weather Reports


time (UTC)temp
C
wind
direction
speed
KPH
gust
KPH
rain 1hr
cm
rain 24hr
cm
rain mn
cm
humidity
%
barometer
mb
20260507024717 8 315 1.6 8.0 0.00 0.00 0.00 10 1006.8
20260507023731 8 293 4.8 9.7 0.00 0.00 0.00 10 1006.8
20260507022747 8 293 1.6 9.7 0.00 0.00 0.00 10 1006.6
20260507021803 8 0.0 0.0 0.00 0.00 0.00 10 1006.7
20260507020805 8 0.0 0.0 0.00 0.00 0.00 10 1006.6
20260507015726 8 0.0 0.0 0.00 0.00 0.00 10 1006.6
20260507014720 8 293 1.6 3.2 0.00 0.00 0.00 10 1006.5
20260507013743 8 293 4.8 8.0 0.00 0.00 0.00 10 1006.4
20260507012728 8 293 1.6 4.8 0.00 0.00 0.00 10 1006.4
20260507011737 8 0.0 0.0 0.00 0.00 0.00 10 1006.3
20260507010819 8 0.0 0.0 0.00 0.00 0.00 10 1006.1
20260507004717 8 0.0 0.0 0.00 0.00 0.00 10 1006.1
20260507002725 8 315 0.0 1.6 0.00 0.00 0.00 10 1006.0
20260507001734 8 0.0 0.0 0.00 0.00 0.00 10 1005.8
20260507000807 8 0.0 0.0 0.00 0.00 0.00 10 1005.8
20260506235718 8 315 1.6 3.2 0.00 0.00 0.00 10 1005.9
20260506234735 9 0.0 0.0 0.00 0.00 0.00 10 1006.0
20260506233722 9 315 0.0 3.2 0.00 0.00 0.00 10 1005.8
20260506231718 9 315 0.0 3.2 0.00 0.00 0.00 10 1005.8
20260506230726 9 293 9.7 11.3 0.00 0.00 0.00 10 1005.8
20260506225719 9 315 0.0 1.6 0.00 0.00 0.00 10 1005.7
20260506224724 9 0.0 0.0 0.00 0.00 0.00 10 1005.7
20260506223801 9 315 1.6 6.4 0.00 0.00 0.00 10 1005.5
20260506222722 10 315 3.2 9.7 0.00 0.00 0.00 10 1005.4
20260506221739 10 0.0 0.0 0.00 0.00 0.00 10 1005.3
20260506220731 10 0.0 0.0 0.00 0.00 0.00 10 1005.3
20260506215719 10 0.0 0.0 0.00 0.00 0.00 10 1005.1
20260506214726 10 315 1.6 3.2 0.00 0.00 0.00 10 1005.3
20260506213729 10 315 1.6 3.2 0.00 0.00 0.00 10 1005.2
20260506212736 10 0.0 0.0 0.00 0.00 0.00 10 1005.1
20260506211808 10 0.0 0.0 0.00 0.00 0.00 10 1005.1
20260506210721 10 0.0 0.0 0.00 0.00 0.00 10 1004.9
20260506204716 10 306 0.0 3.2 0.00 0.00 0.00 10 1004.8
20260506203731 10 0.0 0.0 0.00 0.00 0.00 10 1004.7
20260506202722 10 0.0 0.0 0.00 0.00 0.00 10 1004.7
20260506201719 10 0.0 0.0 0.00 0.00 0.00 10 1004.5
20260506200724 10 0.0 0.0 0.00 0.00 0.00 10 1004.4
20260506195728 10 315 3.2 8.0 0.00 0.00 0.00 10 1004.2
20260506194733 10 315 1.6 3.2 0.00 0.00 0.00 10 1004.0
20260506192729 11 0.0 0.0 0.00 0.00 0.00 10 1004.0
20260506191719 11 322 3.2 12.9 0.00 0.00 0.00 10 1003.9
20260506190724 11 331 1.6 6.4 0.00 0.00 0.00 10 1003.7
20260506185719 11 315 8.0 11.3 0.00 0.00 0.00 10 1003.7
20260506184721 11 315 1.6 8.0 0.00 0.00 0.00 10 1003.5
20260506183740 11 315 1.6 6.4 0.00 0.00 0.00 10 1003.2
20260506182722 12 315 3.2 8.0 0.00 0.00 0.00 10 1003.2
20260506181721 12 306 4.8 9.7 0.00 0.00 0.00 10 1003.1
20260506180725 12 315 1.6 6.4 0.00 0.00 0.00 10 1003.0
20260506175721 13 315 3.2 6.4 0.00 0.00 0.00 10 1002.9
20260506173805 13 0.0 0.0 0.00 0.00 0.00 10 1002.5
20260506172720 13 0.0 0.0 0.00 0.00 0.00 10 1002.6
20260506171733 13 293 1.6 4.8 0.00 0.00 0.00 11 1002.3
20260506170733 13 293 8.0 12.9 0.00 0.00 0.00 12 1002.3
20260506165718 13 265 4.8 11.3 0.00 0.00 0.00 15 1002.1
20260506164721 13 270 8.0 9.7 0.00 0.00 0.00 17 1002.3
20260506163719 14 248 0.0 3.2 0.00 0.00 0.00 15 1002.2
20260506162731 14 270 4.8 9.7 0.00 0.00 0.00 15 1002.2
20260506161735 15 270 1.6 6.4 0.00 0.00 0.00 13 1002.1
20260506160736 15 248 0.0 3.2 0.00 0.00 0.00 14 1002.2
20260506155732 15 232 1.6 4.8 0.00 0.00 0.00 23 1002.2
20260506154716 15 270 1.6 4.8 0.00 0.00 0.00 28 1002.2
20260506153743 15 241 4.8 9.7 0.00 0.15 0.00 26 1002.0
20260506152718 15 229 1.6 8.0 0.00 0.51 0.00 25 1001.9
20260506151737 15 0.0 0.0 0.00 0.74 0.00 28 1001.9
20260506150721 15 0.0 0.0 0.00 0.79 0.00 30 1001.7
20260506145727 15 0.0 0.0 0.00 0.79 0.00 34 1001.7
20260506144727 15 270 1.6 4.8 0.00 0.79 0.00 35 1001.8
20260506143723 16 287 3.2 11.3 0.00 0.79 0.00 40 1001.9
20260506142722 16 248 6.4 11.3 0.00 0.79 0.00 44 1001.8
20260506141736 16 0.0 0.0 0.00 0.79 0.00 49 1001.7
20260506140745 16 248 1.6 8.0 0.00 0.79 0.00 51 1001.5
20260506135732 17 270 0.0 3.2 0.00 0.79 0.00 47 1001.5
20260506134748 17 248 1.6 4.8 0.00 0.79 0.00 44 1001.6
20260506133721 17 0.0 0.0 0.00 0.79 0.00 44 1001.5
20260506132748 16 248 3.2 9.7 0.00 0.79 0.00 44 1001.6
20260506131746 16 0.0 0.0 0.00 0.79 0.00 45 1001.6
20260506130733 16 216 1.6 4.8 0.00 0.79 0.00 44 1001.7
20260506125721 17 241 3.2 8.0 0.00 0.79 0.00 45 1001.6
20260506124721 17 0.0 0.0 0.00 0.79 0.00 42 1001.7
20260506123733 17 225 1.6 12.9 0.00 0.79 0.00 38 1001.6
20260506122722 16 0.0 0.0 0.00 0.79 0.00 40 1001.6
20260506121722 16 203 1.6 6.4 0.00 0.79 0.00 32 1001.6
20260506120719 16 169 6.4 11.3 0.00 0.79 0.00 26 1001.6
20260506115727 15 180 0.0 3.2 0.00 0.79 0.00 30 1001.6
20260506114738 15 180 3.2 8.0 0.00 0.79 0.00 33 1001.8
20260506113756 15 0.0 0.0 0.00 0.79 0.00 35 1001.7
20260506112725 16 158 0.0 1.6 0.00 0.79 0.00 34 1001.8
20260506111718 16 158 0.0 3.2 0.00 0.79 0.00 35 1001.7
20260506110722 16 0.0 0.0 0.00 0.79 0.00 33 1001.6
20260506105805 16 0.0 0.0 0.00 0.79 0.00 30 1001.6
20260506104728 15 0.0 0.0 0.00 0.79 0.00 31 1001.6
20260506103725 16 0.0 0.0 0.00 0.79 0.00 32 1001.7
20260506102742 16 207 9.7 12.9 0.00 0.79 0.00 31 1001.6
20260506101730 16 212 6.4 9.7 0.00 0.79 0.00 20 1001.6
20260506100736 16 203 3.2 11.3 0.00 0.79 0.00 10 1001.7
20260506095729 16 225 6.4 11.3 0.00 0.79 0.00 10 1001.6
20260506094726 16 212 3.2 6.4 0.00 0.79 0.00 10 1001.7
20260506093753 15 0.0 0.0 0.00 0.79 0.00 10 1001.7
20260506092722 15 225 0.0 4.8 0.00 0.79 0.00 10 1001.7
20260506091740 15 211 1.6 6.4 0.00 0.79 0.00 10 1001.7
20260506085733 14 248 0.0 1.6 0.00 0.79 0.00 10 1001.6
20260506084737 14 0.0 0.0 0.00 0.79 0.00 10 1001.6
20260506083806 14 0.0 0.0 0.00 0.79 0.00 10 1001.5
20260506082721 15 225 1.6 8.0 0.00 0.79 0.00 10 1001.5
20260506081746 15 227 4.8 11.3 0.00 0.79 0.00 10 1001.5
20260506080744 15 203 1.6 6.4 0.00 0.79 0.00 10 1001.3
20260506072809 14 204 3.2 16.1 0.00 0.79 0.00 10 1001.3
20260506071735 13 207 1.6 8.0 0.00 0.79 0.00 10 1001.3
20260506070729 13 0.0 0.0 0.00 0.79 0.00 10 1001.3
20260506061728 12 180 1.6 3.2 0.00 0.79 0.00 10 1001.1
20260506060755 12 0.0 0.0 0.00 0.79 0.00 10 1001.2
20260506050715 12 0.0 0.0 0.00 0.84 0.00 10 1001.1
20260506044728 12 0.0 0.0 0.00 0.84 0.00 10 1001.2
20260506043743 12 0.0 0.0 0.00 0.84 0.00 10 1001.2
20260506042732 12 0.0 0.0 0.00 0.84 0.00 10 1001.3
20260506041742 12 0.0 0.0 0.00 0.84 0.00 10 1001.3
20260506040811 12 0.0 0.0 0.00 0.84 0.00 10 1001.3
20260506035719 12 0.0 0.0 0.00 0.84 0.00 10 1001.2
20260506034719 12 225 0.0 3.2 0.00 0.84 0.00 10 1001.3
20260506033819 12 0.0 0.0 0.00 0.84 0.00 10 1001.3
20260506032726 12 0.0 0.0 0.00 0.84 0.00 10 1001.2
20260506031742 12 0.0 0.0 0.00 0.84 0.00 10 1001.2
20260506030811 12 180 1.6 3.2 0.00 0.84 0.00 10 1001.3
20260506025737 12 180 1.6 4.8 0.00 0.84 0.00 10 1001.3